Quantico, VA

2:04 PM EDT on September 19, 2017 (GMT -0400)
Quantico Marine Corps Air Facility

Weather History for KNYG - November, 2013

Change the Weather History Date:

Thursday, November 7, 2013

  Actual Average Record
Temperature  
Mean Temperature 56 °F -  
Max Temperature 63 °F 57 °F 73 °F (2001)
Min Temperature 46 °F 39 °F 34 °F (2007)
Degree Days  
Heating Degree Days 10    
Growing Degree Days 6 (Base 50)    
Moisture  
Dew Point 46 °F    
Average Humidity 71    
Maximum Humidity 94    
Minimum Humidity 39    
Precipitation  
Precipitation 0.02 in - - ()
Sea Level Pressure  
Sea Level Pressure 29.99 in    
Wind  
Wind Speed 8 mph (WNW)    
Max Wind Speed 22 mph    
Max Gust Speed 33 mph    
Visibility 10 miles    
Events Rain    
Averages and records for this station are not official NWS values.
T = Trace of Precipitation, MM = Missing Value Source: NWS Daily Summary

Daily Weather History Graph

Daily Weather History Graph

Search for Another Location

Airport or City:

Trip Planner

Search our weather history database for the weather conditions in past years. The results will help you decide how hot, cold, wet, or windy it might be!

Date:

Astronomy

Nov. 07, 2013 Rise Set
Actual Time 6:42 AM EST 5:02 PM EST
Civil Twilight 6:14 AM EST 5:30 PM EST
Nautical Twilight 5:43 AM EST 6:02 PM EST
Astronomical Twilight 5:11 AM EST 6:33 PM EST
Moon 10:48 AM EST (11/7) 9:12 PM EST (11/7)
Length of Visible Light 11h 16m
Length of Day
10h 20m
Waxing Crescent, 22% of the Moon is Illuminated
Nov 7
Waxing Crescent
Nov 10
First Quarter
Nov 17
Full
Nov 25
Last Quarter
Dec 2
New

Hourly Weather History & Observations

Time (EST) Temp. Windchill Dew Point Humidity Pressure Visibility Wind Dir Wind Speed Gust Speed Precip Events Conditions
12:56 AM 55.9 °F - 51.1 °F 84% 30.08 in 10.0 mi SW 5.8 mph - N/A   Clear
1:56 AM 55.9 °F - 51.1 °F 84% 30.06 in 10.0 mi SSW 8.1 mph - N/A   Clear
2:56 AM 55.0 °F - 51.1 °F 86% 30.03 in 10.0 mi SSW 8.1 mph - N/A   Clear
3:56 AM 55.0 °F - 52.0 °F 89% 30.00 in 10.0 mi SW 5.8 mph - N/A   Clear
4:42 AM 55.4 °F - 51.8 °F 88% 29.98 in 10.0 mi SW 6.9 mph - N/A   Partly Cloudy
4:56 AM 57.0 °F - 53.1 °F 87% 29.99 in 10.0 mi SW 10.4 mph - N/A   Clear
5:56 AM 55.9 °F - 53.1 °F 90% 29.95 in 10.0 mi SSW 9.2 mph - N/A   Scattered Clouds
6:39 AM 57.2 °F - 53.6 °F 88% 29.94 in 9.0 mi SSW 5.8 mph - N/A   Mostly Cloudy
6:49 AM 55.4 °F - 53.6 °F 94% 29.93 in 7.0 mi SSW 8.1 mph - N/A   Scattered Clouds
6:56 AM 57.0 °F - 54.0 °F 89% 29.94 in 7.0 mi SW 5.8 mph - N/A   Scattered Clouds
7:56 AM 57.9 °F - 55.0 °F 90% 29.93 in 7.0 mi SSW 5.8 mph - N/A   Overcast
8:56 AM 61.0 °F - 55.9 °F 83% 29.93 in 10.0 mi Variable 4.6 mph - N/A   Overcast
9:56 AM 63.0 °F - 55.0 °F 75% 29.92 in 10.0 mi Variable 4.6 mph - N/A   Overcast
10:56 AM 63.0 °F - 54.0 °F 72% 29.91 in 10.0 mi WNW 8.1 mph - N/A   Overcast
11:56 AM 61.0 °F - 55.0 °F 81% 29.91 in 10.0 mi NW 10.4 mph - 0.00 in Rain Light Rain
12:56 PM 59.0 °F - 54.0 °F 83% 29.92 in 6.0 mi NNW 11.5 mph - 0.02 in Rain Light Rain
1:56 PM 57.9 °F - 51.1 °F 78% 29.94 in 10.0 mi North 11.5 mph 20.7 mph 0.00 in   Overcast
2:56 PM 60.1 °F - 42.1 °F 51% 29.94 in 10.0 mi NNW 21.9 mph 33.4 mph N/A   Scattered Clouds
3:56 PM 59.0 °F - 41.0 °F 51% 29.95 in 10.0 mi North 16.1 mph 25.3 mph N/A   Clear
4:56 PM 55.9 °F - 37.0 °F 49% 29.97 in 10.0 mi North 16.1 mph - N/A   Clear
5:56 PM 53.1 °F - 35.1 °F 50% 30.01 in 10.0 mi North 11.5 mph - N/A   Clear
6:56 PM 52.0 °F - 35.1 °F 53% 30.04 in 10.0 mi North 11.5 mph - N/A   Clear
7:56 PM 50.0 °F - 32.0 °F 50% 30.07 in 10.0 mi North 8.1 mph - N/A   Clear
8:56 PM 48.0 °F - 30.0 °F 50% 30.07 in 10.0 mi North 3.5 mph - N/A   Clear
9:56 PM 48.9 °F - 30.0 °F 48% 30.09 in 10.0 mi North 5.8 mph - N/A   Overcast
10:56 PM 48.0 °F - 26.1 °F 42% 30.10 in 10.0 mi North 12.7 mph 26.5 mph N/A   Clear
11:56 PM 46.0 °F 41.0 °F 21.9 °F 39% 30.12 in 10.0 mi North 10.4 mph - N/A   Scattered Clouds